Dewpoint
68 69 68 69 61 61 47 38 41 51 51 52 52 54 54 57 53 55 68 67 68 70 70 71 74 72 72 74 74 74 73 73 74 75 75 75 75 75 75 75 75 75 75 74 74 74 74 74 74
62 65 68 68 57 48 40 42 44 52 50 52 54 55 55 56 59 62 65 66 68 69 70 72 75 74 74 74 74 74 73 74 75 75 76 76 75 75 75 75 75 75 75 73 72 72 73 73 73
66 67 66 61 57 45 40 43 49 52 50 51 51 55 57 58 61 62 64 66 68 69 71 72 75 75 75 75 75 75 74 75 75 75 75 75 75 75 75 74 75 75 75 75 74 72 70 71 71
68 66 68 60 53 42 41 52 56 52 50 51 54 55 59 61 61 64 66 68 69 70 72 75 76 75 75 75 75 75 75 75 75 75 75 75 75 74 74 74 74 74 75 74 74 73 71 69 69
66 65 60 57 53 45 54 53 53 50 49 53 53 56 58 61 62 63 67 68 68 70 72 74 77 76 76 75 75 75 75 75 75 76 75 75 75 74 74 75 74 74 74 73 73 73 71 70 68
64 65 56 53 50 53 52 55 55 50 52 54 52 53 57 60 61 63 67 68 68 70 72 72 75 76 76 75 75 75 75 75 75 76 76 75 75 75 76 74 74 74 74 74 73 72 71 70 69
63 61 55 51 52 52 51 54 55 51 51 52 52 52 55 61 63 64 66 65 67 68 69 70 71 73 75 76 75 75 75 75 76 76 76 76 75 75 75 75 75 73 73 74 74 73 72 71 70
66 63 57 51 52 54 55 55 55 52 52 53 54 53 54 61 61 61 63 62 65 67 68 68 70 71 72 73 75 75 75 75 75 75 75 75 75 74 74 76 76 74 73 73 74 74 74 73 73
62 58 55 54 53 55 56 55 55 55 52 52 53 53 58 59 61 63 62 64 67 68 68 68 70 70 70 72 73 75 75 75 76 75 74 75 72 71 72 73 75 73 73 73 73 74 74 74 74
62 57 56 57 59 61 56 52 55 55 57 53 54 54 59 60 60 61 62 63 64 66 69 70 70 69 69 70 73 73 73 72 73 71 69 70 72 71 70 72 73 73 74 74 75 75 75 74 73
60 57 58 58 61 61 56 54 55 55 52 53 52 54 55 59 60 61 63 63 63 66 70 72 70 69 70 69 71 72 72 72 72 65 63 70 70 70 70 69 65 69 74 72 73 74 73 71 72
59 58 56 58 62 62 57 57 53 54 53 53 52 54 54 55 59 61 62 63 64 63 69 70 70 69 70 72 71 71 71 68 70 70 72 67 64 69 70 70 67 69 70 71 70 70 64 71 70
56 55 56 62 64 59 57 57 57 54 55 54 53 53 53 55 57 59 61 64 64 65 68 69 69 71 70 68 69 70 71 69 68 71 72 71 64 66 70 72 71 70 70 69 69 68 69 66 64
56 57 57 59 57 58 55 55 56 57 55 54 53 52 53 55 57 59 62 64 64 65 67 69 70 70 70 70 68 69 68 68 70 70 70 71 71 71 72 70 70 69 68 67 67 68 67 65 65
56 56 58 58 58 57 57 53 53 57 53 52 52 51 54 56 57 58 62 64 65 65 67 67 69 68 68 66 68 65 66 69 69 71 71 73 71 65 70 72 70 68 70 68 69 69 69 67 67
57 61 55 58 58 58 57 51 57 55 53 51 51 50 54 56 57 58 59 59 63 66 66 66 66 67 68 65 65 68 67 69 69 60 68 73 71 72 71 70 70 73 74 72 70 70 69 68 66
50 52 53 56 58 57 57 54 56 58 55 53 50 49 53 56 58 58 61 62 62 65 66 66 66 66 68 68 71 69 66 68 69 70 70 69 67 68 69 69 71 73 72 70 71 70 69 68 65
44 50 52 53 58 56 57 55 55 56 56 57 58 50 52 54 56 59 60 62 62 65 66 67 68 67 67 70 68 68 67 70 71 71 70 67 66 61 65 69 72 71 71 70 71 70 71 71 69
43 46 50 55 57 57 56 53 52 54 57 58 59 52 55 55 56 59 61 62 64 67 66 68 70 68 68 69 64 67 67 71 70 68 71 70 64 63 68 72 69 69 72 71 70 71 72 71 70
44 46 53 55 57 58 57 55 52 53 57 59 59 60 61 61 60 61 61 62 65 66 67 70 70 71 70 71 70 70 67 70 70 71 70 70 71 72 70 72 71 71 68 70 72 72 73 72 69
40 41 50 51 54 57 57 55 54 55 61 62 62 61 61 63 63 61 61 62 66 66 68 69 70 70 70 70 71 69 72 69 69 66 70 68 70 70 70 71 71 63 65 66 69 73 73 71 72
44 50 51 51 50 48 54 49 54 55 57 59 58 57 59 62 64 63 61 63 65 66 68 68 70 70 70 71 70 66 66 68 66 68 71 69 70 70 69 70 71 64 62 64 72 74 74 72 66
44 45 48 49 50 49 50 50 52 57 56 55 58 55 56 60 63 62 64 64 65 66 68 68 70 71 70 71 71 70 68 70 71 70 70 70 71 70 69 69 70 72 72 71 72 72 73 70 64
38 47 50 51 51 46 49 50 50 55 55 54 57 54 56 60 61 62 66 67 66 66 69 70 70 71 71 70 71 69 68 68 70 70 69 69 68 69 69 70 70 72 69 68 72 71 73 73 64
31 38 36 40 41 39 48 51 48 52 56 55 56 56 54 58 58 61 65 66 66 66 69 70 69 71 71 72 70 71 70 69 68 69 69 70 69 70 68 71 70 72 71 72 72 72 72 72 72
28 27 30 36 34 32 35 46 51 50 56 57 55 56 56 56 56 59 63 66 67 67 69 70 70 70 71 72 72 72 71 72 72 71 71 70 70 69 70 72 71 71 72 72 72 71 72 71 72
27 26 26 34 37 31 36 51 53 56 55 55 58 58 55 55 57 59 64 63 61 67 68 71 70 71 71 71 72 72 73 71 71 71 72 71 70 73 73 72 72 71 71 72 72 72 70 71 72
31 25 20 22 22 29 35 44 47 51 56 54 51 52 57 55 58 61 64 65 64 65 67 69 72 71 70 72 72 72 72 72 72 72 72 71 71 70 72 72 72 72 71 72 70 71 71 72 71
19 19 23 23 28 26 34 37 52 53 56 51 52 55 59 58 57 58 63 63 65 67 69 68 70 71 71 72 72 71 72 72 72 71 72 72 72 70 70 71 71 71 72 71 71 71 70 70 69
17 16 18 21 22 25 26 44 52 53 55 53 54 59 60 60 58 61 63 63 63 65 66 68 68 66 70 71 71 72 72 72 72 71 72 73 72 72 72 71 72 71 72 71 72 70 71 70 69
Lifted_Index
-1 -2 -2 -3 -3 -2 -1 -0 -1 -2 -2 -1 -1 -1 -1 -2 -2 -2 -3 -3 -4 -4 -4 -4 -4 -4 -4 -4 -4 -4 -4 -4 -4 -5 -5 -5 -5 -5 -5 -5 -5 -5 -5 -5 -4 -4 -4 -4 -4
-1 -2 -3 -3 -2 -1 -0 0 -1 -1 -1 -1 -1 -1 -2 -2 -2 -2 -3 -3 -3 -4 -4 -4 -5 -5 -5 -5 -4 -4 -4 -4 -5 -5 -5 -5 -5 -5 -5 -5 -5 -5 -5 -4 -4 -3 -3 -4 -4
-2 -2 -3 -3 -1 -0 0 0 -1 -1 -1 -0 -0 -1 -2 -2 -2 -2 -3 -3 -4 -4 -5 -5 -6 -5 -5 -5 -5 -5 -5 -5 -5 -6 -6 -6 -6 -6 -5 -5 -5 -5 -5 -4 -4 -3 -3 -3 -3
-2 -2 -3 -3 -1 -0 -0 -1 -1 -0 -0 0 -0 -1 -2 -2 -2 -3 -3 -3 -4 -4 -5 -6 -6 -6 -6 -6 -6 -6 -6 -6 -6 -6 -6 -6 -6 -6 -5 -5 -5 -5 -5 -5 -4 -4 -3 -2 -2
-2 -2 -3 -3 -2 -1 -1 -1 -1 -0 0 0 0 -0 -1 -2 -2 -2 -3 -3 -3 -4 -5 -6 -7 -7 -6 -6 -6 -6 -6 -7 -7 -7 -7 -6 -6 -6 -6 -5 -5 -5 -5 -4 -4 -4 -3 -2 -2
-2 -2 -2 -2 -2 -2 -1 -2 -1 -1 -0 0 0 0 -1 -1 -1 -2 -3 -3 -3 -4 -5 -6 -6 -6 -6 -6 -6 -6 -7 -7 -7 -8 -7 -7 -7 -7 -6 -6 -5 -5 -5 -5 -4 -4 -3 -2 -2
-2 -2 -2 -2 -2 -1 -1 -2 -1 -0 0 1 1 0 -0 -1 -1 -1 -2 -2 -3 -3 -4 -5 -5 -6 -6 -6 -6 -6 -7 -7 -7 -8 -8 -7 -7 -7 -7 -6 -5 -5 -5 -5 -5 -4 -4 -3 -2
-2 -2 -2 -2 -2 -2 -2 -2 -1 -0 1 1 1 1 -0 -1 -1 -1 -1 -2 -2 -3 -3 -4 -5 -5 -6 -6 -6 -6 -6 -6 -7 -7 -7 -7 -6 -6 -6 -6 -6 -5 -5 -5 -5 -5 -5 -4 -4
-1 -1 -2 -2 -2 -2 -2 -1 -1 -0 0 1 1 1 0 -1 -1 -1 -2 -2 -3 -3 -4 -4 -4 -5 -5 -6 -6 -6 -6 -6 -6 -6 -6 -6 -6 -5 -5 -5 -5 -5 -5 -5 -5 -5 -5 -5 -4
-1 -0 -0 -1 -1 -2 -2 -1 -1 -1 -0 0 1 1 0 -1 -1 -1 -2 -2 -3 -3 -4 -4 -4 -4 -4 -5 -5 -6 -6 -6 -5 -5 -5 -5 -5 -4 -4 -4 -4 -4 -4 -5 -5 -5 -5 -5 -5
-0 0 0 0 -1 -2 -2 -1 -1 -1 -0 0 1 1 0 -0 -1 -2 -2 -2 -3 -3 -4 -4 -4 -4 -4 -4 -5 -5 -5 -5 -5 -4 -4 -4 -3 -3 -3 -3 -3 -3 -4 -4 -5 -5 -5 -4 -4
-1 -0 0 -0 -1 -2 -2 -1 -1 -0 0 1 1 1 1 -0 -1 -1 -2 -2 -2 -3 -3 -4 -4 -4 -4 -4 -5 -5 -5 -5 -4 -4 -4 -3 -2 -2 -2 -2 -2 -3 -4 -4 -4 -4 -4 -4 -4
-1 -0 -0 -1 -2 -2 -2 -1 -1 -0 0 1 1 1 1 0 -0 -1 -2 -2 -3 -3 -4 -4 -4 -4 -4 -4 -5 -5 -5 -4 -4 -3 -3 -3 -3 -2 -2 -2 -3 -3 -3 -4 -4 -4 -4 -4 -4
-1 -1 -1 -2 -2 -2 -2 -1 -1 -0 0 1 1 1 1 0 -0 -1 -2 -2 -3 -3 -4 -4 -4 -4 -4 -4 -4 -4 -4 -4 -4 -3 -3 -3 -3 -3 -3 -3 -3 -3 -3 -3 -4 -4 -4 -4 -4
-2 -2 -2 -2 -2 -2 -1 -1 -0 -0 0 1 1 1 1 0 -0 -1 -1 -2 -3 -3 -3 -3 -4 -4 -3 -3 -3 -3 -4 -4 -3 -3 -3 -4 -4 -4 -3 -3 -3 -3 -4 -4 -4 -5 -5 -4 -4
-2 -2 -2 -2 -3 -2 -1 -1 -0 0 0 1 1 1 1 0 -0 -1 -1 -1 -2 -3 -3 -3 -3 -3 -3 -3 -3 -3 -3 -4 -3 -3 -3 -4 -4 -3 -3 -3 -4 -5 -5 -5 -5 -6 -5 -4 -4
-1 -1 -2 -2 -3 -2 -1 -1 -0 0 0 1 1 1 1 0 -0 -1 -1 -1 -2 -2 -3 -3 -2 -2 -3 -3 -3 -3 -3 -3 -3 -3 -4 -4 -3 -2 -2 -3 -4 -5 -5 -5 -6 -6 -6 -5 -4
-1 -2 -2 -3 -3 -2 -2 -1 -0 0 0 0 1 1 1 0 -0 -1 -1 -1 -1 -2 -3 -3 -3 -2 -3 -3 -3 -3 -3 -3 -3 -4 -4 -4 -3 -1 -2 -3 -4 -4 -5 -5 -6 -6 -7 -6 -5
-2 -2 -2 -2 -2 -2 -2 -1 -0 0 0 0 0 1 1 0 0 -0 -1 -1 -2 -2 -3 -3 -3 -3 -3 -3 -3 -3 -3 -3 -3 -3 -3 -4 -3 -3 -3 -4 -4 -4 -5 -5 -6 -7 -7 -7 -6
-1 -2 -2 -2 -2 -2 -2 -1 -0 0 -0 -1 -0 1 0 0 -0 -0 -1 -1 -2 -2 -3 -3 -3 -3 -3 -3 -3 -3 -3 -3 -3 -3 -3 -3 -4 -3 -3 -4 -4 -4 -4 -5 -6 -7 -7 -7 -6
-2 -2 -2 -2 -1 -1 -1 -1 -1 -0 -1 -1 -0 0 0 -0 -1 -1 -1 -2 -2 -2 -3 -3 -3 -3 -3 -3 -3 -3 -3 -3 -3 -3 -3 -3 -3 -3 -3 -4 -4 -4 -4 -5 -6 -7 -7 -7 -6
-2 -2 -2 -1 -0 -0 -0 -1 -1 -1 -1 -1 -0 0 1 -0 -1 -1 -1 -2 -2 -2 -3 -3 -3 -3 -3 -3 -3 -3 -2 -2 -2 -3 -3 -3 -3 -3 -3 -4 -4 -4 -4 -4 -5 -6 -7 -6 -5
-2 -2 -2 -1 -0 0 0 -0 -1 -2 -1 -1 -0 1 1 0 -1 -1 -1 -2 -2 -2 -3 -3 -3 -3 -3 -3 -3 -3 -2 -3 -3 -3 -3 -3 -3 -3 -3 -3 -4 -4 -4 -4 -5 -6 -6 -5 -4
-1 -1 -2 -1 -0 -0 -0 -1 -2 -2 -2 -2 -1 -0 1 0 -0 -0 -1 -1 -2 -2 -3 -3 -3 -3 -4 -4 -3 -3 -3 -3 -3 -3 -3 -3 -3 -3 -3 -3 -4 -4 -4 -4 -5 -6 -6 -6 -5
-0 -1 -1 -1 -1 -0 -1 -2 -2 -3 -3 -3 -2 -1 0 1 0 -0 -1 -1 -2 -2 -3 -3 -3 -3 -4 -4 -4 -3 -3 -3 -3 -3 -3 -3 -3 -3 -3 -3 -4 -4 -4 -5 -5 -5 -5 -6 -6
0 0 0 0 -0 -0 -1 -2 -2 -2 -3 -3 -2 -1 -0 1 1 -0 -1 -1 -2 -2 -3 -3 -3 -3 -4 -4 -4 -4 -4 -4 -3 -3 -4 -3 -3 -3 -3 -4 -4 -4 -4 -5 -5 -5 -5 -5 -6
0 0 0 0 0 0 -1 -2 -2 -2 -2 -2 -2 -2 -1 0 0 -0 -1 -1 -1 -2 -3 -4 -4 -4 -4 -4 -5 -5 -5 -4 -4 -4 -4 -4 -4 -4 -4 -4 -4 -4 -4 -5 -5 -5 -5 -5 -5
1 1 1 1 0 -0 -1 -2 -3 -2 -2 -2 -1 -2 -2 -1 -0 -0 -1 -1 -1 -1 -2 -3 -4 -4 -4 -5 -5 -5 -5 -5 -5 -5 -4 -4 -4 -4 -4 -4 -4 -4 -4 -4 -4 -5 -5 -5 -5
1 1 1 1 0 -1 -1 -2 -3 -3 -2 -1 -1 -1 -2 -2 -1 -1 -1 -1 -1 -1 -2 -3 -4 -4 -4 -4 -5 -5 -5 -5 -5 -5 -5 -4 -4 -4 -4 -4 -4 -4 -4 -4 -4 -4 -5 -5 -4
1 1 1 1 0 -0 -1 -2 -3 -4 -3 -1 -1 -2 -3 -2 -2 -1 -1 -1 -1 -0 -1 -2 -3 -4 -4 -4 -5 -5 -5 -5 -5 -5 -5 -5 -5 -4 -4 -4 -4 -4 -4 -4 -4 -4 -5 -4 -4